Washington, GA

9:24 PM EDT on April 24, 2018 (GMT -0400)
Washington-Wilkes County

Weather History for KIIY - January, 2014

Change the Weather History Date:

Saturday, January 25, 2014

  Actual Average (KDBN) Record (KDBN)
Temperature  
Mean Temperature 34 °F -  
Max Temperature 51 °F 59 °F 81 °F (1950)
Min Temperature 17 °F 35 °F 10 °F (1963)
Degree Days  
Heating Degree Days 31    
Moisture  
Dew Point 11 °F    
Average Humidity 39    
Maximum Humidity 63    
Minimum Humidity 22    
Precipitation  
Precipitation 0.00 in - - ()
Sea Level Pressure  
Sea Level Pressure 30.00 in    
Wind  
Wind Speed 6 mph (WSW)    
Max Wind Speed 23 mph    
Max Gust Speed 32 mph    
Visibility 10 miles    
Events      
Averages and records for this station are not official NWS values.
T = Trace of Precipitation, MM = Missing Value Source: NWS Daily Summary

Daily Weather History Graph

Daily Weather History Graph

Search for Another Location

Airport or City:

Astronomy

Jan. 25, 2014 Rise Set
Actual Time 7:32 AM EST 5:55 PM EST
Civil Twilight 7:05 AM EST 6:21 PM EST
Nautical Twilight 6:35 AM EST 6:52 PM EST
Astronomical Twilight 6:05 AM EST 7:21 PM EST
Moon 2:04 AM EST 12:54 PM EST
Length of Visible Light 11h 16m
Length of Day
10h 23m
Waning Crescent, 34% of the Moon is Illuminated
Jan 25
Waning Crescent
Jan 30
New
Feb 6
First Quarter
Feb 14
Full
Feb 22
Last Quarter

Hourly Weather History & Observations

Time (EST) Temp. Windchill Dew Point Humidity Pressure Visibility Wind Dir Wind Speed Gust Speed Precip Events Conditions
12:15 AM 21.2 °F - 5.0 °F 50% 30.28 in 10.0 mi Calm Calm - N/A   Clear
12:35 AM 21.2 °F 16.4 °F 5.0 °F 50% 30.27 in 10.0 mi SSW 3.5 mph - N/A   Clear
12:55 AM 23.0 °F 18.4 °F 3.2 °F 43% 30.26 in 10.0 mi SW 3.5 mph - N/A   Clear
1:15 AM 21.2 °F 16.4 °F 3.2 °F 46% 30.25 in 10.0 mi SSW 3.5 mph - N/A   Clear
1:35 AM 23.0 °F 18.4 °F 1.4 °F 39% 30.23 in 10.0 mi SSW 3.5 mph - N/A   Clear
1:55 AM 21.2 °F - 3.2 °F 46% 30.21 in 10.0 mi Calm Calm - N/A   Clear
2:15 AM 21.2 °F 16.4 °F 5.0 °F 50% 30.21 in 10.0 mi SW 3.5 mph - N/A   Clear
2:35 AM 19.4 °F 14.3 °F 6.8 °F 58% 30.19 in 10.0 mi South 3.5 mph - N/A   Clear
2:55 AM 21.2 °F 16.4 °F 5.0 °F 50% 30.18 in 10.0 mi SSW 3.5 mph - N/A   Clear
3:15 AM 21.2 °F 16.4 °F 5.0 °F 50% 30.18 in 10.0 mi SSW 3.5 mph - N/A   Clear
3:35 AM 19.4 °F 14.3 °F 5.0 °F 54% 30.17 in 10.0 mi SSW 3.5 mph - N/A   Clear
3:55 AM 21.2 °F 16.4 °F 5.0 °F 50% 30.17 in 10.0 mi SW 3.5 mph - N/A   Clear
4:15 AM 17.6 °F 12.3 °F 6.8 °F 63% 30.15 in 10.0 mi SSW 3.5 mph - N/A   Clear
4:35 AM 19.4 °F 12.8 °F 6.8 °F 58% 30.15 in 10.0 mi SW 4.6 mph - N/A   Clear
4:55 AM 21.2 °F 14.9 °F 5.0 °F 50% 30.13 in 10.0 mi SW 4.6 mph - N/A   Clear
5:15 AM 21.2 °F 14.9 °F 5.0 °F 50% 30.12 in 10.0 mi SW 4.6 mph - N/A   Clear
5:35 AM 21.2 °F 14.9 °F 5.0 °F 50% 30.12 in 10.0 mi SSW 4.6 mph - N/A   Clear
5:55 AM 21.2 °F 16.4 °F 5.0 °F 50% 30.11 in 10.0 mi SW 3.5 mph - N/A   Clear
6:15 AM 21.2 °F 14.9 °F 6.8 °F 54% 30.11 in 10.0 mi SSW 4.6 mph - N/A   Clear
6:35 AM 21.2 °F 14.9 °F 8.6 °F 58% 30.10 in 10.0 mi SW 4.6 mph - N/A   Clear
6:55 AM 21.2 °F 16.4 °F 8.6 °F 58% 30.09 in 10.0 mi SSW 3.5 mph - N/A   Clear
7:15 AM 21.2 °F 14.9 °F 8.6 °F 58% 30.08 in 10.0 mi SSW 4.6 mph - N/A   Clear
7:35 AM 21.2 °F 16.4 °F 8.6 °F 58% 30.08 in 10.0 mi SW 3.5 mph - N/A   Clear
7:55 AM 21.2 °F 16.4 °F 8.6 °F 58% 30.06 in 10.0 mi SSW 3.5 mph - N/A   Clear
8:15 AM 23.0 °F 18.4 °F 10.4 °F 59% 30.06 in 10.0 mi SSW 3.5 mph - N/A   Clear
8:35 AM 24.8 °F 20.5 °F 10.4 °F 54% 30.08 in 10.0 mi SW 3.5 mph - N/A   Clear
8:55 AM 26.6 °F 20.0 °F 8.6 °F 47% 30.05 in 10.0 mi SSW 5.8 mph - N/A   Scattered Clouds
9:15 AM 28.4 °F 21.2 °F 8.6 °F 43% 30.03 in 10.0 mi SW 6.9 mph - N/A   Clear
9:35 AM 32.0 °F 22.5 °F 10.4 °F 41% 30.01 in 10.0 mi SW 12.7 mph 20.7 mph N/A   Clear
9:55 AM 33.8 °F 24.8 °F 14.0 °F 44% 30.01 in 10.0 mi WSW 12.7 mph 23.0 mph N/A   Clear
10:15 AM 35.6 °F 27.5 °F 14.0 °F 41% 30.00 in 10.0 mi WSW 11.5 mph 19.6 mph N/A   Unknown
10:35 AM 35.6 °F 27.1 °F 12.2 °F 38% 29.97 in 10.0 mi SW 12.7 mph 18.4 mph N/A   Unknown
10:55 AM 37.4 °F 30.3 °F 12.2 °F 36% 29.96 in 10.0 mi SW 10.4 mph 16.1 mph N/A   Unknown
11:15 AM 39.2 °F 31.6 °F 8.6 °F 28% 29.96 in 10.0 mi WSW 12.7 mph 23.0 mph N/A   Unknown
11:35 AM 41.0 °F 32.8 °F 8.6 °F 26% 29.95 in 10.0 mi WSW 16.1 mph 24.2 mph N/A   Clear
11:55 AM 42.8 °F 36.2 °F 8.6 °F 25% 29.92 in 10.0 mi WSW 12.7 mph 26.5 mph N/A   Clear
12:15 PM 42.8 °F 35.4 °F 8.6 °F 25% 29.90 in 10.0 mi WSW 15.0 mph 26.5 mph N/A   Clear
12:35 PM 44.6 °F 36.6 °F 10.4 °F 25% 29.89 in 10.0 mi WSW 19.6 mph 29.9 mph N/A   Clear
12:55 PM 44.6 °F 39.2 °F 12.2 °F 27% 29.87 in 10.0 mi WSW 10.4 mph 21.9 mph N/A   Clear
1:15 PM 46.4 °F 40.1 °F 12.2 °F 25% 29.85 in 10.0 mi WSW 15.0 mph 27.6 mph N/A   Clear
1:35 PM 46.4 °F 39.5 °F 12.2 °F 25% 29.84 in 10.0 mi WSW 17.3 mph 24.2 mph N/A   Clear
1:55 PM 50.0 °F - 14.0 °F 24% 29.82 in 10.0 mi West 13.8 mph 21.9 mph N/A   Clear
2:15 PM 50.0 °F - 14.0 °F 24% 29.81 in 10.0 mi West 23.0 mph 32.2 mph N/A   Clear
2:35 PM 51.8 °F - 14.0 °F 22% 29.82 in 10.0 mi West 19.6 mph 28.8 mph N/A   Clear
2:55 PM 50.0 °F - 14.0 °F 24% 29.82 in 10.0 mi West 13.8 mph 29.9 mph N/A   Clear
3:15 PM 50.0 °F - 14.0 °F 24% 29.81 in 10.0 mi WSW 11.5 mph 25.3 mph N/A   Clear
3:35 PM 51.8 °F - 15.8 °F 24% 29.81 in 10.0 mi West 16.1 mph 26.5 mph N/A   Clear
3:55 PM 51.8 °F - 15.8 °F 24% 29.81 in 10.0 mi West 13.8 mph 25.3 mph N/A   Clear
4:15 PM 51.8 °F - 15.8 °F 24% 29.81 in 10.0 mi West 12.7 mph 19.6 mph N/A   Clear
4:35 PM 51.8 °F - 15.8 °F 24% 29.81 in 10.0 mi West 17.3 mph 26.5 mph N/A   Clear
4:55 PM 50.0 °F - 14.0 °F 24% 29.83 in 10.0 mi West 15.0 mph 25.3 mph N/A   Scattered Clouds
5:15 PM 50.0 °F - 14.0 °F 24% 29.84 in 10.0 mi West 8.1 mph 20.7 mph N/A   Mostly Cloudy
5:35 PM 48.2 °F - 14.0 °F 25% 29.85 in 10.0 mi West 13.8 mph 19.6 mph N/A   Mostly Cloudy
5:55 PM 48.2 °F - 14.0 °F 25% 29.86 in 10.0 mi West 11.5 mph 17.3 mph N/A   Mostly Cloudy
6:15 PM 46.4 °F 42.9 °F 14.0 °F 27% 29.87 in 10.0 mi West 6.9 mph - N/A   Mostly Cloudy
6:35 PM 46.4 °F 41.5 °F 14.0 °F 27% 29.89 in 10.0 mi NW 10.4 mph - N/A   Mostly Cloudy
6:55 PM 44.6 °F 40.7 °F 14.0 °F 29% 29.90 in 10.0 mi NW 6.9 mph - N/A   Mostly Cloudy
7:10 PM 44.6 °F 40.2 °F 14.0 °F 29% 29.91 in 10.0 mi WNW 8.1 mph - N/A   Mostly Cloudy
7:35 PM 42.8 °F 38.6 °F 14.0 °F 31% 29.92 in 10.0 mi WNW 6.9 mph - N/A   Scattered Clouds
7:55 PM 41.0 °F 37.1 °F 14.0 °F 33% 29.93 in 10.0 mi West 5.8 mph - N/A   Clear
8:15 PM 39.2 °F 35.0 °F 14.0 °F 36% 29.94 in 10.0 mi West 5.8 mph - N/A   Clear
8:35 PM 39.2 °F 34.2 °F 15.8 °F 39% 29.94 in 10.0 mi West 6.9 mph - N/A   Clear
8:55 PM 39.2 °F 34.2 °F 15.8 °F 39% 29.94 in 10.0 mi West 6.9 mph - N/A   Clear
9:15 PM 39.2 °F 34.2 °F 15.8 °F 39% 29.94 in 10.0 mi WSW 6.9 mph - N/A   Clear
9:35 PM 39.2 °F 34.2 °F 17.6 °F 42% 29.94 in 10.0 mi WSW 6.9 mph - N/A   Clear
9:55 PM 39.2 °F 34.2 °F 17.6 °F 42% 29.94 in 10.0 mi West 6.9 mph - N/A   Clear
10:15 PM 39.2 °F 33.6 °F 17.6 °F 42% 29.95 in 10.0 mi WSW 8.1 mph - N/A   Clear
10:35 PM 39.2 °F 33.0 °F 17.6 °F 42% 29.95 in 10.0 mi West 9.2 mph - N/A   Clear
10:55 PM 39.2 °F 33.6 °F 17.6 °F 42% 29.96 in 10.0 mi WSW 8.1 mph - N/A   Clear
11:15 PM 39.2 °F 34.2 °F 17.6 °F 42% 29.95 in 10.0 mi WSW 6.9 mph - N/A   Clear
11:35 PM 39.2 °F 34.2 °F 17.6 °F 42% 29.95 in 10.0 mi West 6.9 mph - N/A   Clear
11:55 PM 39.2 °F 33.6 °F 19.4 °F 45% 29.94 in 10.0 mi WSW 8.1 mph - N/A   Clear